OSCAR 7 (AO-7) 1 07530U 74089B 26236.27892306 -.00000028 00000+0 11372-3 0 9996 2 07530 101.9921 250.2374 0012255 3.2594 7.1380 12.53699200369050 PHASE 3B (AO-10) 1 14129U 83058B 26234.88657270 -.00000310 00000+0 00000+0 0 9994 2 14129 25.9661 208.6277 5988982 133.9728 294.5118 2.05871966296867 UOSAT 2 (UO-11) 1 14781U 84021B 26237.21715966 .00001178 00000+0 12501-3 0 9991 2 14781 97.8130 202.0534 0006636 326.7196 33.3604 14.90943922267414 LUSAT (LO-19) 1 20442U 90005G 26237.04320253 .00000074 00000+0 42953-4 0 9992 2 20442 98.8841 260.7408 0011651 9.8689 350.2721 14.34139632912269 EYESAT A (AO-27) 1 22825U 93061C 26237.15414466 .00000065 00000+0 41650-4 0 9999 2 22825 98.6827 304.5237 0007271 255.9532 104.0843 14.30957215716868 ITAMSAT (IO-26) 1 22826U 93061D 26237.18286617 .00000064 00000+0 40990-4 0 9993 2 22826 98.6775 304.4771 0007917 236.8415 123.2009 14.31385731717180 RADIO ROSTO (RS15) 1 23439U 94085A 26237.20476070 -.00000060 00000+0 -49232-3 0 9993 2 23439 64.8152 191.5923 0158477 351.3499 8.4701 11.27584100303684 JAS-2 (FO-29) 1 24278U 96046B 26237.29004477 .00000006 00000+0 44769-4 0 9990 2 24278 98.5187 76.6897 0348794 277.1417 79.0194 13.53277099482516 TECHSAT 1B (GO-32) 1 25397U 98043D 26237.25344698 .00000046 00000+0 40207-4 0 9997 2 25397 99.0129 231.7725 0001953 49.7598 310.3751 14.24439700461167 ISS (ZARYA) 1 25544U 98067A 26237.20913067 .00007851 00000+0 14728-3 0 9993 2 25544 51.6330 318.4690 0007681 81.0568 279.1290 15.49618182582450 PCSAT (NO-44) 1 26931U 01043C 26235.97866662 .00000080 00000+0 60923-4 0 9998 2 26931 67.0496 68.9288 0005649 270.3796 89.6659 14.31977234300157 SAUDISAT 1C (SO-50) 1 27607U 02058C 26237.20295726 .00000820 00000+0 11405-3 0 9993 2 27607 64.5511 275.4310 0073069 249.8159 109.5078 14.83176088274695 CUTE-1 (CO-55) 1 27844U 03031E 26237.01975038 .00000228 00000+0 11760-3 0 9994 2 27844 98.6766 244.7214 0009362 353.3744 6.7310 14.24371497201475 CUBESAT XI-IV (CO-57) 1 27848U 03031J 26236.48062759 .00000185 00000+0 10026-3 0 9991 2 27848 98.6796 243.8465 0009714 13.6367 346.5072 14.23651376201092 MOZHAETS 4 (RS22) 1 27939U 03042A 26237.28198125 .00000282 00000+0 51592-4 0 9992 2 27939 98.3488 63.6080 0012400 53.0453 62.7605 14.73570859225725 CUBESAT XI-V 1 28895U 05043F 26236.41305083 .00001042 00000+0 17123-3 0 9990 2 28895 98.3069 33.5080 0013756 354.6807 5.4251 14.72784518111796 CUTE-1.7+APD II (CO-65) 1 32785U 08021C 26237.17773236 .00004879 00000+0 30410-3 0 9990 2 32785 97.8338 220.0855 0009583 144.7972 215.3892 15.10004932995600 SEEDS II (CO-66) 1 32791U 08021J 26237.28663955 .00018950 00000+0 56126-3 0 9992 2 32791 97.7551 238.6141 0004732 80.4452 279.7325 15.34912912997885 YUBILEINY (RS30) 1 32953U 08025A 26237.22916263 .00000023 00000+0 94577-4 0 9998 2 32953 82.5064 312.5014 0020198 158.2546 201.9396 12.43182203828279 KKS-1 (KISEKI) 1 33499U 09002H 26237.27093888 .00001118 00000+0 14348-3 0 9997 2 33499 98.1157 160.8042 0009279 69.5327 290.6882 14.83272179946436 SWISSCUBE 1 35932U 09051B 26237.19903639 .00000819 00000+0 17087-3 0 9990 2 35932 98.3960 146.2696 0007085 9.4730 350.6603 14.62593476899248 BEESAT-1 1 35933U 09051C 26236.49189624 .00000645 00000+0 13903-3 0 9993 2 35933 98.3887 145.0415 0005932 27.6799 332.4717 14.61812983899160 ITUPSAT1 1 35935U 09051E 26234.69303247 .00000601 00000+0 13375-3 0 9999 2 35935 98.3969 142.3361 0008406 39.9005 320.2812 14.60523807898442 XIWANG-1 (HOPE-1) 1 36122U 09072B 26237.25104073 -.00000214 00000+0 -44467-3 0 9990 2 36122 100.4074 189.9947 0008207 76.5865 283.6163 13.16439730802098 O/OREOS (USA 219) 1 37224U 10062C 26237.10207053 .00001409 00000+0 13793-3 0 9994 2 37224 71.9690 284.2041 0016439 291.4145 68.5271 14.93976019126931 JUGNU 1 37839U 11058B 26237.10730088 .00000389 00000+0 63731-4 0 9995 2 37839 19.9598 249.7074 0018753 117.2241 285.6436 14.13792696768797 SRMSAT 1 37841U 11058D 26236.71223411 .00000371 00000+0 57345-4 0 9996 2 37841 19.9733 4.6952 0011610 238.1432 149.9765 14.11588232767517 STRAND-1 1 39090U 13009E 26237.05030199 .00000204 00000+0 82999-4 0 9997 2 39090 98.3960 55.6074 0009251 32.4047 327.7706 14.37197535706956 ZACUBE-1 (TSHEPISOSAT) 1 39417U 13066B 26236.85384148 .00005302 00000+0 40596-3 0 9996 2 39417 97.8038 199.5196 0041906 23.2843 337.0267 15.01612971691033 GOMX-1 1 39430U 13066Q 26237.22807552 .00001341 00000+0 20699-3 0 9993 2 39430 97.6453 73.3391 0127195 215.1278 144.1494 14.69630228680059 CUBEBUG-2 (LO-74) 1 39440U 13066AA 26237.11561591 .00002141 00000+0 19929-3 0 9995 2 39440 97.8944 186.4238 0057512 157.3239 203.0541 14.94158296687280 FUNCUBE-1 (AO-73) 1 39444U 13066AE 26237.17683318 .00007180 00000+0 43567-3 0 9990 2 39444 97.8340 210.1298 0034604 331.9300 28.0062 15.10346037690076 UWE-3 1 39446U 13066AG 26236.85160105 .00002880 00000+0 24654-3 0 9998 2 39446 97.8759 193.4280 0050401 90.1968 270.5029 14.97416975687855 UNISAT-6 1 40012U 14033C 26237.24362706 .00003080 00000+0 33129-3 0 9999 2 40012 97.7961 28.7901 0044317 198.9490 161.0080 14.88528231656436 DUCHIFAT-1 1 40021U 14033M 26237.14481636 .00366648 00000+0 14053-2 0 9998 2 40021 98.0331 306.9909 0005949 211.7167 148.3745 15.86494321666598 QB50P1 1 40025U 14033R 26235.48502800 .00006735 00000+0 32359-3 0 9992 2 40025 98.0979 251.4010 0008563 7.5646 352.5714 15.19176645663241 LILACSAT-2 1 40908U 15049K 26237.30041787 .00017783 00000+0 27992-3 0 9997 2 40908 97.4596 276.8544 0006465 18.5820 341.5668 15.53631869606477 FOX-1A (AO-85) 1 40967U 15058D 26236.96209765 .00002074 00000+0 18909-3 0 9990 2 40967 64.7742 65.1904 0135973 30.6660 330.2309 14.91321087123824 CAS-2T & KS-1Q 1 41847U 16066G 26237.21777179 .00000447 00000+0 72975-4 0 9992 2 41847 98.3779 312.1635 0340069 280.1339 76.1661 14.44814480514766 RADFXSAT (FOX-1B) 1 43017U 17073E 26237.18115931 .00009057 00000+0 38442-3 0 9996 2 43017 97.4605 102.9884 0149732 90.2020 271.6370 15.13607423475823 DIWATA-2B 1 43678U 18084H 26237.31922096 .00001083 00000+0 90721-4 0 9995 2 43678 98.1205 76.5699 0010473 302.1117 57.9088 15.00673797426584 ES'HAIL 2 1 43700U 18090A 26237.19395493 .00000141 00000+0 00000+0 0 9999 2 43700 0.0189 132.2779 0002416 48.4391 248.3476 1.00271606 28363 FOX-1CLIFF (AO-95) 1 43770U 18099N 26237.12870356 .00010853 00000+0 39892-3 0 9990 2 43770 97.4330 297.1627 0010110 103.4878 256.7489 15.28031746423745 ITASAT 1 43786U 18099AE 26237.10414704 .00005887 00000+0 27730-3 0 9995 2 43786 97.3981 287.2546 0014016 110.0255 250.2490 15.19807444423371 JY1SAT (JO-97) 1 43803U 18099AX 26236.62279797 .00015872 00000+0 45910-3 0 9997 2 43803 97.4076 299.7724 0006049 42.5314 317.6397 15.35682704424121 UWE-4 1 43880U 18111E 26236.53339866 .00036871 00000+0 65113-3 0 9990 2 43880 97.5819 168.2810 0009918 81.4152 278.8223 15.50224981421352 TIANYAN 01 1 44881U 19093C 26237.23984791 .00000909 00000+0 10838-3 0 9990 2 44881 97.7488 307.7727 0012449 214.7375 145.3030 14.86611229361671 RS-44 & BREEZE-KM R/B 1 44909U 19096E 26237.19403233 .00000023 00000+0 49956-4 0 9997 2 44909 82.5211 293.8582 0217096 343.3233 16.0804 12.79748905311174 SALSAT 1 46495U 20068K 26237.26336136 .00007111 00000+0 24232-3 0 9999 2 46495 97.8877 244.5903 0011121 65.4484 294.7913 15.30667520325921 XW-3 (CAS-9) 1 50466U 21131B 26237.26415905 .00000207 00000+0 77461-4 0 9998 2 50466 98.4977 329.2791 0002953 243.7405 116.3480 14.41410399245060 GREENCUBE (IO-117) 1 53109U 22080E 26237.13121200 -.00000003 00000+0 00000+0 0 9992 2 53109 70.1267 274.2694 0009210 274.4962 85.4645 6.42583689 96494 UMKA 1 (RS40S) 1 57172U 23091G 26237.29514560 .00005517 00000+0 24802-3 0 9995 2 57172 97.4998 295.7368 0011149 233.1782 126.8431 15.21490129174519 CUBESX-HSE 3 (RS42S) 1 57178U 23091N 26237.21261566 .00013534 00000+0 42971-3 0 9993 2 57178 97.5042 303.7282 0009797 197.8359 162.2540 15.32738930174997 MONITOR-3 (RS58S) 1 57180U 23091Q 26237.26586825 .00010284 00000+0 36673-3 0 9990 2 57180 97.5032 301.2574 0010508 207.6131 152.4552 15.29040820174844 MONITOR-4 (RS57S) 1 57182U 23091S 26237.24096182 .00010291 00000+0 36597-3 0 9995 2 57182 97.5026 301.2072 0010494 208.1683 151.8990 15.29133387174844 MONITOR-2 (RS39S) 1 57184U 23091U 26237.27450949 .00003963 00000+0 19001-3 0 9994 2 57184 97.5019 295.1139 0009788 225.7477 134.2955 15.19452041174445 SVYATOBOR 1 (RS60S) 1 57187U 23091X 26237.25229927 .00008780 00000+0 32747-3 0 9999 2 57187 97.5039 301.4800 0008594 198.7462 161.3462 15.27630569174854 VIZARD-METEO (RS38S) 1 57189U 23091Z 26237.15577111 .00017956 00000+0 48151-3 0 9992 2 57189 97.5044 308.1039 0007263 171.0255 189.1120 15.38009329175289 POLYTECH-UNIVERSE 3 (R*) 1 57191U 23091AB 26237.29205313 .00004407 00000+0 20939-3 0 9993 2 57191 97.4994 294.6359 0013707 245.7216 114.2587 15.19669066174447 UTMN 2 (RS27S) 1 57203U 23091AP 26237.25866397 .00012965 00000+0 40164-3 0 9998 2 57203 97.5038 305.4917 0007664 180.4763 179.6473 15.33551023175123 KUZGTU 1 (RS47S) 1 57217U 23091AV 26237.26798937 .00012112 00000+0 40317-3 0 9992 2 57217 97.5013 302.4997 0009926 202.4623 157.6185 15.31243726174940 SONATE-2 1 59112U 24043Q 26237.22762349 .00049849 00000+0 52797-3 0 9992 2 59112 97.5591 32.1704 0004769 305.9484 54.1332 15.63980479138666 MESAT1 1 60209U 24125G 26237.12359663 .00089161 00000+0 68244-3 0 9997 2 60209 97.2172 96.5607 0005621 324.7467 35.3424 15.71848930120366 GRBBETA 1 60237U 24128C 26237.23335334 .00003396 00000+0 23723-3 0 9991 2 60237 61.9920 333.9382 0030873 149.7393 210.5491 15.07068074116676 OOV-CUBE (TUBSAT-30) 1 60240U 24128F 26237.31678084 .00002159 00000+0 17307-3 0 9993 2 60240 61.9970 344.4740 0035185 149.6306 210.6834 15.03030984116503 COLIBRI-S (RS67S) 1 61746U 24199M 26237.24410277 .00023106 00000+0 40617-3 0 9998 2 61746 97.2871 111.8235 0009051 41.9616 318.2328 15.50454902148109 HORS 3 (RS81S) 1 61753U 24199U 26237.29025432 .00043161 00000+0 53655-3 0 9995 2 61753 97.2858 114.7086 0006677 46.5549 313.6263 15.59837163148318 HORS 4 (RS82S) 1 61754U 24199V 26237.25433008 .00067408 00000+0 63803-3 0 9990 2 61754 97.2788 116.4203 0005288 46.6697 313.5004 15.66744396148431 SIT-2086 1 61764U 24199AF 26237.28782942 .00041976 00000+0 56028-3 0 9991 2 61764 97.2814 114.9424 0006395 30.4462 329.7164 15.57954082145170 ALTAIR (RS65S) 1 61779U 24199AW 26237.29015790 .00010357 00000+0 27658-3 0 9994 2 61779 97.2928 106.2057 0013988 61.8385 298.4271 15.38190632147733 ASRTU-1 (AO-123) 1 61781U 24199AY 26237.27942017 .00007548 00000+0 21290-3 0 9990 2 61781 97.2898 105.3337 0015215 64.2589 296.0224 15.36574620144539 SAMSAT-IONOSPHERE (RS7*) 1 61784U 24199BB 26237.23830258 .00061695 00000+0 64848-3 0 9991 2 61784 97.2813 115.0251 0007927 42.8383 317.3493 15.64101164148334 RTU MIREA 1 (RS51S) 1 61785U 24199BC 26237.26017470 .00089196 00000+0 74574-3 0 9991 2 61785 97.2793 116.3316 0006908 44.2314 315.9499 15.69712220145272 LASARSAT 1 62391U 24247Q 26237.26126706 .00039985 00000+0 68502-3 0 9997 2 62391 44.9711 232.8238 0007731 54.5465 305.6148 15.50581210 94024 CROCUBE 1 62394U 24247T 26237.03134957 .00043022 00000+0 67126-3 0 9990 2 62394 44.9685 230.1372 0007915 62.8834 297.2865 15.53158446 94030 TEVEL2-4 1 63213U 25052D 26237.18269817 .00019145 00000+0 53287-3 0 9998 2 63213 97.3800 133.7659 0002026 157.7999 202.3333 15.36861865 80705 TEVEL2-5 1 63214U 25052E 26237.21178150 .00018880 00000+0 52910-3 0 9999 2 63214 97.3801 133.7215 0001856 158.8427 201.2894 15.36651607 80704 TEVEL2-6 1 63215U 25052F 26237.16056756 .00018645 00000+0 52314-3 0 9998 2 63215 97.3804 133.6553 0001759 157.9574 202.1746 15.36615911 80699 TEVEL2-1 1 63217U 25052H 26237.21540064 .00017945 00000+0 51363-3 0 9991 2 63217 97.3777 133.2480 0001329 181.0795 179.0446 15.36001106 80684 TEVEL2-3 1 63218U 25052J 26237.20717035 .00018194 00000+0 51952-3 0 9996 2 63218 97.3780 133.2718 0001181 166.8571 193.2704 15.36073075 80681 TEVEL2-2 1 63219U 25052K 26237.15005463 .00018119 00000+0 51841-3 0 9990 2 63219 97.3779 133.1859 0001283 183.1287 176.9949 15.36012064 80673 OTP-2 1 63235U 25052AB 26237.21586652 .00005803 00000+0 23676-3 0 9990 2 63235 97.3768 128.6210 0004272 286.0915 73.9853 15.24800570 80383 TEVEL2-9 1 63237U 25052AD 26236.17658937 .00015717 00000+0 48233-3 0 9993 2 63237 97.3841 131.4296 0003742 254.2042 105.8788 15.33824437 80449 TEVEL2-7 1 63238U 25052AE 26235.51388802 .00015154 00000+0 47057-3 0 9990 2 63238 97.3840 130.6525 0003640 257.9226 102.1608 15.33456949 80334 TEVEL2-8 1 63239U 25052AF 26236.50155594 .00015011 00000+0 46589-3 0 9992 2 63239 97.3842 131.6142 0003732 255.1503 104.9327 15.33475254 80487 INNOSAT 16 (RS92S7) 1 64878U 25155C 26237.25612159 .00005591 00000+0 21932-3 0 9991 2 64878 97.4631 204.2243 0008695 309.9256 50.1217 15.26121403 91207 GEOSCAN 6 (RS92S6) 1 64879U 25155D 26237.27635925 .00010223 00000+0 33987-3 0 9991 2 64879 97.4619 206.1834 0005541 301.2874 58.7824 15.31360784 91334 GEOSCAN 1 (RS92S1) 1 64880U 25155E 26237.24935735 .00010828 00000+0 35208-3 0 9991 2 64880 97.4614 206.3696 0005409 301.8573 58.2142 15.32062043 91341 239ALFEROV (RS61S) 1 64881U 25155F 26237.24107403 .00014637 00000+0 43734-3 0 9990 2 64881 97.4610 207.1763 0004807 301.3292 58.7480 15.34687113 91394 GEOSCAN 2 (RS92S2) 1 64890U 25155Q 26237.23144058 .00010755 00000+0 34709-3 0 9995 2 64890 97.4613 206.5304 0004565 283.2599 76.8133 15.32310448 91354 GEOSCAN 5 (RS92S5) 1 64891U 25155R 26237.28164678 .00014573 00000+0 43146-3 0 9998 2 64891 97.4603 207.3800 0003861 311.8809 48.2105 15.34980084 91414 GEOSCAN 4 (RS92S4) 1 64892U 25155S 26237.25813018 .00015297 00000+0 45004-3 0 9994 2 64892 97.4608 207.4272 0003687 312.8326 47.2607 15.35169273 91411 GEOSCAN 3 (RS92S3) 1 64893U 25155T 26237.22487670 .00019010 00000+0 51668-3 0 9993 2 64893 97.4594 208.0444 0003458 313.2535 46.8421 15.37600598 91452 INNOSAT 3 (RS92S0) 1 64894U 25155U 26237.23116885 .00048123 00000+0 89201-3 0 9993 2 64894 97.4529 210.6586 0001060 346.0673 14.0548 15.48836827 91636 KNACKSAT-2 1 67683U 98067XZ 26237.20551406 .00060193 00000+0 56710-3 0 9993 2 67683 51.6275 305.6765 0007297 82.1790 278.0034 15.66459981 31071 MARINA 1 69920U 26156BD 26237.16526937 .00001829 00000+0 18550-3 0 9996 2 69920 97.7471 136.8217 0007600 5.3586 354.7713 14.92093311 7281